Abilene, TX

7:46 AM CDT on March 30, 2017 (GMT -0500)
Abilene Regional

Weather History for KABI - March, 2014

Change the Weather History Date:

Sunday, March 16, 2014

  Actual Average Record
Temperature  
Mean Temperature 46 °F 56 °F  
Max Temperature 54 °F 69 °F 91 °F (1908)
Min Temperature 37 °F 44 °F 20 °F (1895)
Degree Days  
Heating Degree Days 19 9  
Month to date heating degree days 237 181  
Since 1 July heating degree days 2599 2314  
Cooling Degree Days 0 1  
Month to date cooling degree days 6 11  
Year to date cooling degree days 11 16  
Moisture  
Dew Point 35 °F    
Average Humidity 70    
Maximum Humidity 96    
Minimum Humidity 44    
Precipitation  
Precipitation 0.00 in 0.06 in 1.13 in (1897)
Month to date precipitation 0.64 0.91  
Year to date precipitation 1.13 3.29  
Sea Level Pressure  
Sea Level Pressure 30.02 in    
Wind  
Wind Speed 21 mph (North)    
Max Wind Speed 38 mph    
Max Gust Speed 47 mph    
Visibility 10 miles    
Events      
T = Trace of Precipitation, MM = Missing Value Source: NWS Daily Summary

Daily Weather History Graph

Daily Weather History Graph

Search for Another Location

Airport or City:

Trip Planner

Search our weather history database for the weather conditions in past years. The results will help you decide how hot, cold, wet, or windy it might be!

Date:

Astronomy

Mar. 16, 2014 Rise Set
Actual Time 7:47 AM CDT 7:47 PM CDT
Civil Twilight 7:23 AM CDT 8:11 PM CDT
Nautical Twilight 6:54 AM CDT 8:40 PM CDT
Astronomical Twilight 6:25 AM CDT 9:09 PM CDT
Moon 8:03 PM CDT (3/16) 7:33 AM CDT (3/16)
Length of Visible Light 12h 48m
Length of Day
11h 59m
Full, 100% of the Moon is Illuminated
Mar 16
Full
Mar 16
Full
Mar 23
Last Quarter
Mar 30
New
Apr 7
First Quarter

Hourly Weather History & Observations

Time (CDT) Temp. Windchill Dew Point Humidity Pressure Visibility Wind Dir Wind Speed Gust Speed Precip Events Conditions
12:52 AM 53.1 °F - 51.1 °F 93% 29.82 in 10.0 mi North 10.4 mph - N/A   Clear
1:03 AM 53.1 °F - 51.1 °F 93% 29.86 in 10.0 mi North 9.2 mph - N/A   Partly Cloudy
1:52 AM 51.1 °F - 50.0 °F 96% 29.84 in 10.0 mi NNW 9.2 mph - N/A   Clear
2:52 AM 51.1 °F - 46.0 °F 83% 29.87 in 10.0 mi NNW 11.5 mph - N/A   Clear
3:34 AM 52.0 °F - 46.9 °F 83% 29.92 in 10.0 mi North 16.1 mph 25.3 mph N/A   Mostly Cloudy
3:52 AM 51.1 °F - 48.0 °F 89% 29.88 in 10.0 mi NNW 18.4 mph - N/A   Overcast
4:44 AM 48.9 °F - 42.1 °F 77% 29.95 in 10.0 mi North 26.5 mph 33.4 mph N/A   Overcast
4:52 AM 48.0 °F - 39.9 °F 74% 29.91 in 10.0 mi North 26.5 mph 35.7 mph N/A   Overcast
5:52 AM 46.0 °F 38.0 °F 33.1 °F 61% 29.94 in 10.0 mi North 21.9 mph 29.9 mph N/A   Clear
6:52 AM 45.0 °F 36.6 °F 30.9 °F 58% 29.96 in 10.0 mi North 21.9 mph - N/A   Clear
7:52 AM 44.1 °F 34.6 °F 28.9 °F 55% 29.99 in 10.0 mi North 26.5 mph 32.2 mph N/A   Clear
8:52 AM 44.1 °F 34.0 °F 28.9 °F 55% 30.04 in 10.0 mi North 29.9 mph 38.0 mph N/A   Clear
9:52 AM 44.1 °F 33.3 °F 28.0 °F 53% 30.07 in 10.0 mi NNW 34.5 mph 43.7 mph N/A   Clear
10:52 AM 45.0 °F 35.4 °F 30.9 °F 58% 30.10 in 10.0 mi North 28.8 mph 34.5 mph N/A   Mostly Cloudy
11:25 AM 46.0 °F 36.4 °F 33.1 °F 61% 30.12 in 10.0 mi North 32.2 mph 39.1 mph N/A   Mostly Cloudy
11:49 AM 48.2 °F - 33.8 °F 58% 30.13 in 10.0 mi North 27.6 mph 39.1 mph N/A   Scattered Clouds
11:52 AM 48.0 °F - 33.1 °F 56% 30.12 in 10.0 mi North 31.1 mph 38.0 mph N/A   Scattered Clouds
12:52 PM 51.1 °F - 33.1 °F 50% 30.12 in 10.0 mi North 31.1 mph 43.7 mph N/A   Scattered Clouds
1:52 PM 52.0 °F - 32.0 °F 47% 30.09 in 10.0 mi North 31.1 mph 39.1 mph N/A   Partly Cloudy
2:52 PM 53.1 °F - 32.0 °F 45% 30.06 in 10.0 mi North 28.8 mph 47.2 mph N/A   Mostly Cloudy
3:52 PM 52.0 °F - 30.9 °F 45% 30.06 in 10.0 mi North 28.8 mph 36.8 mph N/A   Mostly Cloudy
4:52 PM 51.1 °F - 30.0 °F 44% 30.06 in 10.0 mi North 21.9 mph 35.7 mph N/A   Overcast
5:52 PM 50.0 °F - 30.0 °F 46% 30.08 in 10.0 mi North 23.0 mph 31.1 mph N/A   Overcast
6:52 PM 48.9 °F - 30.9 °F 50% 30.09 in 10.0 mi North 17.3 mph 25.3 mph N/A   Mostly Cloudy
7:52 PM 46.9 °F - 30.9 °F 54% 30.11 in 10.0 mi North 15.0 mph - N/A   Overcast
8:52 PM 45.0 °F 40.1 °F 30.0 °F 56% 30.12 in 10.0 mi North 9.2 mph - N/A   Clear
9:52 PM 39.9 °F 35.1 °F 30.0 °F 68% 30.13 in 10.0 mi North 6.9 mph - N/A   Clear
10:52 PM 42.1 °F 37.7 °F 30.0 °F 62% 30.13 in 10.0 mi North 6.9 mph - N/A   Clear
11:52 PM 39.0 °F 33.4 °F 28.0 °F 65% 30.14 in 10.0 mi NNW 8.1 mph - N/A   Clear